EHI
0 0 0 0 0 0 0 0 0 0 0 0 0 0 0 0 0 0 0 0 0 0 0 0 0 0 0 0 0 0 0 0 0 0 0 0 0 0 0 0 0 0 0 0
0 0 0 0 0 0 0 0 0 0 0 0 0 0 0 0 0 0 0 0 0 0 0 0 0 0 0 0 0 0 0 0 0 0 0 0 0 0 0 0 0 0 0 0
0 0 0 0 0 0 0 0 0 0 0 0 0 0 0 0 0 0 0 0 0 0 0 0 0 0 0 0 0 0 0 0 0 0 0 0 0 0 0 0 0 0 0 0
0 0 0 0 0 0 0 0 0 0 0 0 0 0 0 0 0 0 0 0 0 0 0 0 0 0 0 0 0 0 0 0 0 0 0 0 0 0 0 0 0 0 0 0
0 0 0 0 0 0 0 0 0 0 0 0 0 0 0 0 0 0 0 0 0 0 0 0 0 0 0 0 0 0 0 0 0 0 0 0 0 0 0 0 0 0 0 0
0 0 0 0 0 0 0 0 0 0 0 0 0 0 0 0 0 0 0 0 0 0 0 0 0 0 0 0 0 0 0 0 0 0 0 0 0 0 0 0 0 0 0 0
0 0 0 0 0 0 0 0 0 0 0 0 0 0 0 0 0 0 0 0 0 0 0 0 0 0 0 0 0 0 0 0 0 0 0 0 0 0 0 0 0 0 0 0
0 0 0 0 0 0 0 0 0 0 0 0 0 0 0 0 0 0 0 0 0 0 0 0 0 0 0 0 0 0 0 0 0 0 0 0 0 0 0 0 0 0 0 0
0 0 0 0 0 0 0 0 0 0 0 0 0 0 0 0 0 0 0 0 0 0 0 0 0 0 0 0 0 0 0 0 0 0 0 0 0 0 0 0 0 0 0 0
0 0 0 0 0 0 0 0 0 0 0 0 0 0 0 0 0 0 0 0 0 0 0 0 0 0 0 0 0 0 0 0 0 0 0 0 0 0 0 0 0 0 0 0
0 0 0 0 0 0 0 0 0 0 0 0 0 0 0 0 0 0 0 0 0 0 0 0 0 0 0 0 0 0 0 0 0 0 0 0 0 0 0 0 0 0 0 0
0 0 0 0 0 0 0 0 0 0 0 0 0 0 0 0 0 0 0 0 0 0 0 0 0 0 0 0 0 0 0 0 0 0 0 0 0 0 0 0 0 0 0 0
0 0 0 0 0 0 0 0 0 0 0 0 0 0 0 0 0 0 0 0 0 0 0 0 0 0 0 0 0 0 0 0 0 0 0 0 0 0 0 0 0 0 0 0
0 0 0 0 0 0 0 0 0 0 0 0 0 0 0 0 0 0 0 0 0 0 0 0 0 0 0 0 0 0 0 0 0 0 0 0 0 0 0 0 0 0 0 0
0 0 0 0 0 0 0 0 0 0 0 0 0 0 0 0 0 0 0 0 0 0 0 0 0 0 0 0 0 0 0 0 0 0 0 0 0 0 0 0 0 0 0 0
0 0 0 0 0 0 0 0 0 0 0 0 0 0 0 0 0 0 0 0 0 0 0 0 0 0 0 0 0 0 0 0 0 0 0 0 0 0 0 0 0 0 0 0
0 0 0 0 0 0 0 0 0 0 0 0 0 0 0 0 0 0 0 0 0 0 0 0 0 0 0 0 0 0 0 0 0 0 0 0 0 0 0 0 0 0 0 0
0 0 0 0 0 0 0 0 0 0 0 0 0 0 0 0 0 0 0 0 0 0 0 0 0 0 0 0 0 0 0 0 0 0 0 0 0 0 0 0 0 0 0 0
0 0 0 0 0 0 0 0 0 0 0 0 0 0 0 0 0 0 0 0 0 0 0 0 0 0 0 0 0 0 0 0 0 0 0 0 0 0 0 0 0 0 0 0
0 0 0 0 0 0 0 0 0 0 0 0 0 0 0 0 0 0 0 0 0 0 0 0 0 0 0 0 0 0 0 0 0 0 0 0 0 0 0 0 0 0 0 0
0 0 0 0 0 0 0 0 0 0 0 0 0 0 0 0 0 0 0 0 0 0 0 0 0 0 0 0 0 0 0 0 0 0 0 0 0 0 0 0 0 0 0 0
0 0 0 0 0 0 0 0 0 0 0 0 0 0 0 0 0 0 0 0 0 0 0 0 0 0 0 0 0 0 0 0 0 0 0 0 0 0 0 0 0 0 0 0
0 0 0 0 0 0 0 0 0 0 0 0 0 0 0 0 0 0 0 0 0 0 0 0 0 0 0 0 0 0 0 0 0 0 0 0 0 0 0 0 0 0 0 0
0 0 0 0 0 0 0 0 0 0 0 0 0 0 0 0 0 0 0 0 0 0 0 0 0 0 0 0 0 0 0 0 0 0 0 0 0 0 0 0 0 0 0 0
0 0 0 0 0 0 0 0 0 0 0 0 0 0 0 0 0 0 0 0 0 0 0 0 0 0 0 0 0 0 0 0 0 0 0 0 0 0 0 0 0 0 0 0
0 0 0 0 0 0 0 0 0 0 0 0 0 0 0 0 0 0 0 0 0 0 0 0 0 0 0 0 0 0 0 0 0 0 0 0 0 0 0 0 0 0 0 0
0 0 0 0 0 0 0 0 0 0 0 0 0 0 0 0 0 0 0 0 0 0 0 0 0 0 0 0 0 0 0 0 0 0 0 0 0 0 0 0 0 0 0 0
Wind_Speed
6 5 4 7 8 9 10 10 11 11 12 15 10 8 8 6 6 5 6 5 5 5 4 4 4 3 3 3 3 3 3 4 4 4 3 3 3 3 3 3 4 3 3 3
5 5 5 8 10 11 12 11 13 12 16 13 9 6 6 6 6 6 7 6 6 5 5 4 4 4 3 3 3 3 3 4 4 3 3 3 4 3 3 3 3 3 3 3
5 3 2 10 11 13 9 9 10 14 14 6 7 8 7 7 7 8 7 6 6 5 5 5 5 4 4 4 2 3 3 4 4 3 3 4 4 3 4 4 3 3 3 3
2 0 10 9 3 8 9 11 11 9 8 7 9 8 7 7 6 7 6 6 5 5 4 4 4 3 3 3 3 3 3 4 4 4 4 4 3 4 4 3 3 4 4 4
3 5 10 8 4 5 7 9 9 11 10 7 4 4 5 5 4 6 6 5 5 4 4 3 4 3 3 3 3 3 4 4 4 4 4 4 4 4 4 3 3 4 4 4
3 4 8 6 2 3 3 8 6 7 8 5 0 2 6 3 3 4 4 3 3 2 2 3 3 3 3 3 3 5 5 5 4 4 4 5 5 4 3 3 3 3 3 3
6 7 10 6 2 4 4 8 3 5 6 4 5 7 5 3 3 3 3 3 2 2 2 3 3 2 3 4 5 5 4 4 3 4 4 4 4 3 3 3 3 3 3 3
6 7 11 4 6 7 8 3 2 3 4 4 5 5 4 4 3 3 3 3 2 2 3 3 2 2 3 5 5 3 3 3 3 3 3 3 3 3 3 3 3 3 3 3
10 10 5 5 7 6 3 4 4 4 4 3 4 5 5 4 3 3 3 3 2 2 3 3 3 3 4 4 3 2 2 3 3 3 3 3 3 3 2 2 2 2 2 2
6 10 7 7 7 6 5 6 5 4 4 4 5 5 5 4 4 3 3 3 2 2 3 4 3 3 4 3 2 2 2 2 2 2 2 2 2 2 2 3 3 3 3 3
9 9 6 8 9 8 6 5 5 5 4 5 5 5 4 4 4 3 3 2 2 2 3 4 4 3 2 2 2 2 2 2 2 2 2 2 2 2 3 3 3 3 3 3
11 9 7 8 5 5 6 6 6 5 4 4 5 5 4 4 4 3 3 2 2 3 4 4 3 3 2 2 2 2 2 2 2 2 2 1 1 1 3 3 4 5 4 4
9 5 6 7 5 5 6 7 6 5 5 5 4 4 4 4 3 3 3 3 3 4 4 3 3 3 3 2 2 3 3 2 2 2 2 2 2 2 2 2 3 4 4 4
7 5 6 7 6 5 5 5 4 3 3 3 3 2 2 3 2 3 3 4 3 3 3 3 3 4 3 2 2 2 2 2 2 2 2 2 2 2 2 2 1 2 3 4
7 7 8 5 4 4 3 2 2 2 2 2 2 2 2 2 3 4 3 3 2 3 3 2 3 4 3 2 2 2 2 2 2 2 2 2 2 2 2 2 2 2 1 2
4 4 5 5 6 4 2 3 3 4 3 2 2 2 3 3 3 3 2 2 2 3 3 3 4 4 2 2 2 2 2 2 1 1 1 1 2 2 1 2 2 2 2 1
5 5 5 5 6 5 5 5 5 4 3 3 3 2 2 1 2 3 3 2 3 3 3 3 4 3 2 1 2 1 1 1 1 1 1 1 1 2 2 2 1 1 1 2
8 7 6 6 5 5 4 4 4 4 4 3 2 2 2 2 3 4 3 2 2 3 3 3 3 2 1 1 1 1 1 1 1 1 1 1 1 1 1 1 1 1 1 1
4 5 5 5 5 5 4 4 3 3 3 2 2 2 3 3 3 3 2 1 2 4 4 3 3 1 1 2 1 1 1 1 1 1 1 1 1 1 1 1 1 1 1 1
2 2 3 3 3 3 3 3 2 2 2 2 2 2 2 2 2 2 1 2 3 3 3 2 2 1 1 1 1 1 1 1 1 1 1 1 1 1 1 1 1 1 1 1
1 1 2 3 2 2 3 3 3 2 2 2 3 3 2 2 1 1 1 2 3 2 2 2 1 1 1 0 1 1 1 1 1 1 1 1 1 1 1 1 1 1 1 1
1 2 2 2 2 1 1 1 2 2 1 1 2 2 1 1 1 1 2 2 3 3 2 1 1 1 0 0 1 1 1 1 1 1 1 1 1 1 1 1 1 1 1 1
1 1 2 2 2 2 1 1 1 2 2 1 1 1 1 1 1 1 2 2 2 2 2 1 1 1 0 0 1 1 1 1 1 1 1 1 1 1 1 1 1 0 0 0
1 2 2 2 3 3 1 0 0 1 1 0 1 1 1 1 1 1 2 2 3 2 1 1 1 1 1 0 1 1 1 0 0 0 0 0 0 0 0 0 0 0 0 1
2 2 2 3 2 1 1 1 1 1 1 1 1 1 0 1 1 1 1 1 2 1 1 2 2 1 1 1 1 1 1 0 1 1 0 0 0 0 0 0 0 0 0 1
1 1 1 1 1 1 1 1 1 0 0 0 1 1 1 1 0 1 1 1 1 1 1 1 1 1 1 0 0 1 0 0 0 0 0 0 0 0 0 0 0 0 0 0
1 1 1 1 0 1 1 1 1 1 1 1 1 1 1 1 1 1 1 1 1 1 1 1 1 1 1 1 0 0 0 0 1 1 0 0 0 0 0 0 0 0 0 0
Wind_Direction
249 255 233 236 233 212 213 218 228 247 250 264 266 267 273 276 282 286 286 278 268 270 266 260 259 255 244 245 234 216 214 221 226 231 227 224 222 226 229 228 230 228 226 235
271 257 243 256 245 231 232 232 239 255 264 261 270 268 267 269 269 271 274 275 276 267 259 252 246 244 242 244 240 212 214 226 227 226 225 222 220 222 224 230 235 230 228 230
262 291 315 261 231 215 220 217 208 233 249 269 277 268 262 262 259 261 267 271 266 255 249 247 243 232 228 234 234 222 222 227 224 221 226 225 219 219 225 228 233 236 237 233
241 257 244 246 207 203 221 238 224 238 257 258 261 272 267 249 242 258 265 265 258 250 253 251 244 240 236 226 221 226 228 229 226 223 229 226 217 221 227 226 224 233 239 237
191 236 269 279 235 191 206 255 228 234 255 268 291 313 286 248 234 246 254 254 253 247 244 245 242 232 225 228 225 227 229 229 225 219 224 222 223 226 226 224 230 234 237 234
193 222 246 252 220 191 146 271 242 215 239 250 127 290 274 269 266 268 274 267 266 272 261 249 246 222 213 230 228 235 233 230 225 219 218 223 228 230 230 224 228 233 244 235
211 237 261 249 180 128 178 251 251 203 218 207 206 227 258 281 282 276 285 282 280 274 266 259 252 219 228 236 240 241 229 222 223 220 219 220 224 227 220 221 223 231 242 244
189 219 250 192 143 190 225 264 248 232 223 222 243 260 271 272 274 282 290 289 282 273 277 277 252 218 239 248 251 236 209 216 227 226 222 214 209 220 211 205 217 235 243 250
200 220 244 182 206 227 239 254 251 242 248 236 255 259 261 264 265 274 275 276 273 262 279 285 264 227 239 253 249 219 200 217 228 227 222 211 206 211 211 205 213 231 229 236
243 256 251 245 242 248 240 242 254 251 247 238 245 253 261 262 267 274 279 279 280 275 277 283 280 253 241 253 237 206 214 223 219 215 226 220 211 207 206 207 212 222 225 232
247 260 276 259 239 242 249 250 257 259 244 232 232 248 247 251 257 259 270 280 270 255 267 278 287 272 255 233 204 212 224 223 221 214 211 219 215 216 217 219 216 219 222 217
233 228 218 249 244 222 227 241 239 238 250 244 224 235 240 243 248 254 262 270 273 269 268 276 281 277 266 237 201 203 224 219 216 214 213 210 226 271 258 247 255 247 239 232
237 244 236 253 257 234 232 239 236 227 231 243 236 222 228 244 251 254 262 265 262 268 269 273 278 273 261 238 210 206 218 220 215 215 213 211 216 228 267 286 270 264 255 244
238 238 253 249 249 247 235 237 233 235 235 227 230 222 220 239 256 257 261 266 268 274 278 274 273 270 257 236 219 219 218 224 221 217 213 210 218 227 228 236 264 282 272 258
236 227 233 249 253 248 226 197 195 232 238 241 220 216 219 229 250 262 270 277 284 285 284 279 274 278 266 230 220 218 215 219 217 218 211 209 214 223 226 231 239 254 279 277
242 237 231 238 244 242 212 195 209 232 229 234 236 240 240 238 252 269 277 270 268 277 280 276 272 273 266 231 216 217 223 235 223 202 202 202 205 212 217 223 237 241 239 243
210 223 217 226 232 230 219 213 211 221 223 226 235 241 243 252 272 278 281 275 264 268 271 271 274 279 261 231 210 218 217 219 213 193 212 216 210 210 210 214 228 243 243 234
221 225 215 210 213 215 216 211 207 211 218 227 226 213 215 226 248 266 278 293 305 303 289 278 282 287 263 231 203 199 192 196 196 199 212 215 211 200 198 205 217 232 257 242
224 223 219 213 207 198 199 203 206 209 212 196 196 218 233 237 244 264 282 295 291 292 296 300 301 278 255 232 172 166 178 197 210 214 211 225 224 202 190 196 205 213 220 215
215 203 196 192 177 173 182 190 183 190 200 182 187 210 240 254 250 256 266 266 262 266 279 288 281 260 253 222 155 154 169 186 205 212 206 210 212 214 197 202 203 205 207 211
191 168 164 164 155 159 174 174 171 192 204 182 188 206 227 251 244 231 245 280 287 288 287 289 273 256 243 212 162 148 160 174 196 211 215 218 217 210 199 204 204 208 206 209
147 147 157 152 142 142 151 157 166 175 180 192 203 200 203 249 271 279 261 257 281 301 311 286 274 260 256 177 165 160 170 174 189 198 205 210 202 200 198 203 210 208 206 203
125 144 151 150 148 141 99 118 158 165 179 197 206 208 213 237 238 246 286 289 292 300 310 283 286 286 251 128 151 156 168 177 186 193 204 213 223 209 199 205 211 199 190 212
119 121 124 117 115 111 101 52 102 137 155 215 234 216 208 247 294 275 269 291 307 317 322 313 331 345 50 70 130 141 163 182 176 163 161 155 197 195 179 179 201 221 197 213
125 122 122 124 129 153 167 118 76 69 64 29 357 350 309 243 250 287 311 308 310 344 345 346 6 25 43 67 103 122 139 147 128 119 119 129 152 202 162 152 192 208 203 210
138 145 157 168 175 175 163 149 151 190 111 21 347 347 350 349 346 331 340 349 355 356 352 346 353 17 38 84 105 115 130 143 128 99 101 103 84 49 37 87 113 240 247 237
121 128 123 99 109 171 167 171 183 220 219 210 288 308 323 347 20 23 8 3 6 2 356 356 1 6 10 32 65 92 123 136 141 139 138 131 132 218 269 224 205 215 244 227